• In Spain
  • List of Countries
  • For 7 days
  • Water Temperature
  • Satellite Maps
  • Weather Map
  • Weather Widgets
  • user-avatar
    Login

    Hourly Weather Verhniy Malyy Sernur

    Today, 21 June, Thursday

    Time Temperature Precipitation Wind Pressure Humidity
    00:00 +10°C° 0 mm 5 mps 737 mmHg 73%
    01:00 +10°C° 0 mm 6 mps 737 mmHg 73%
    02:00 +10°C° 0 mm 6 mps 737 mmHg 73%
    03:00 +10°C° 0 mm 6 mps 737 mmHg 74%
    04:00 +11°C° 0 mm 7 mps 737 mmHg 73%
    05:00 +11°C° 0 mm 7 mps 737 mmHg 72%
    06:00 +12°C° 0 mm 8 mps 737 mmHg 72%
    07:00 +13°C° 0.1 mm 8 mps 737 mmHg 69%
    08:00 +15°C° 0.1 mm 9 mps 737 mmHg 66%
    09:00 +16°C° 0.1 mm 9 mps 737 mmHg 64%
    10:00 +16°C° 0.2 mm 9 mps 737 mmHg 62%
    11:00 +17°C° 0.2 mm 9 mps 737 mmHg 61%
    12:00 +17°C° 0.2 mm 9 mps 737 mmHg 59%
    13:00 +18°C° 0.1 mm 8 mps 737 mmHg 58%
    14:00 +20°C° 0.1 mm 8 mps 737 mmHg 56%
    15:00 +20°C° 0.1 mm 8 mps 737 mmHg 55%
    16:00 +20°C° 0 mm 7 mps 738 mmHg 58%
    17:00 +19°C° 0 mm 6 mps 738 mmHg 61%
    18:00 +17°C° 0 mm 6 mps 738 mmHg 64%
    19:00 +17°C° 0 mm 5 mps 738 mmHg 63%
    20:00 +16°C° 0 mm 5 mps 738 mmHg 62%
    21:00 +15°C° 0 mm 5 mps 739 mmHg 62%
    22:00 +15°C° 0 mm 6 mps 739 mmHg 60%
    23:00 +15°C° 0 mm 6 mps 739 mmHg 58%

    Tomorrow, 22 June, Friday

    Time Temperature Precipitation Wind Pressure Humidity
    00:00 +14°C° 0 mm 6 mps 739 mmHg 56%
    01:00 +14°C° 0 mm 6 mps 740 mmHg 57%
    02:00 +13°C° 0 mm 6 mps 740 mmHg 59%
    03:00 +13°C° 0 mm 6 mps 741 mmHg 60%
    04:00 +13°C° 0 mm 6 mps 741 mmHg 63%
    05:00 +13°C° 0 mm 6 mps 742 mmHg 66%
    06:00 +13°C° 0 mm 6 mps 742 mmHg 69%
    07:00 +15°C° 0 mm 6 mps 742 mmHg 67%
    08:00 +16°C° 0 mm 6 mps 743 mmHg 65%
    09:00 +17°C° 0 mm 6 mps 743 mmHg 62%
    10:00 +19°C° 0 mm 6 mps 743 mmHg 60%
    11:00 +20°C° 0 mm 6 mps 743 mmHg 57%
    12:00 +21°C° 0 mm 6 mps 744 mmHg 55%
    13:00 +22°C° 0 mm 6 mps 744 mmHg 54%
    14:00 +22°C° 0 mm 6 mps 744 mmHg 53%
    15:00 +23°C° 0 mm 5 mps 744 mmHg 52%
    16:00 +22°C° 0 mm 4 mps 744 mmHg 56%
    17:00 +22°C° 0 mm 4 mps 744 mmHg 60%
    18:00 +22°C° 0 mm 3 mps 744 mmHg 64%
    19:00 +20°C° 0 mm 2 mps 744 mmHg 68%
    20:00 +18°C° 0 mm 2 mps 745 mmHg 72%
    21:00 +16°C° 0 mm 2 mps 745 mmHg 76%
    22:00 +15°C° 0 mm 2 mps 745 mmHg 77%
    23:00 +15°C° 0 mm 2 mps 745 mmHg 77%

    Day after tomorrow, 23 June, Saturday

    Time Temperature Precipitation Wind Pressure Humidity
    00:00 +14°C° 0 mm 1 mps 745 mmHg 77%
    01:00 +14°C° 0 mm 1 mps 745 mmHg 77%
    02:00 +14°C° 0 mm 1 mps 746 mmHg 78%
    03:00 +14°C° 0 mm 1 mps 746 mmHg 78%
    04:00 +15°C° 0 mm 1 mps 746 mmHg 77%
    05:00 +18°C° 0 mm 1 mps 746 mmHg 76%
    06:00 +19°C° 0 mm 1 mps 746 mmHg 75%
    07:00 +21°C° 0 mm 1 mps 746 mmHg 71%
    08:00 +23°C° 0 mm 1 mps 746 mmHg 68%
    09:00 +25°C° 0 mm 1 mps 746 mmHg 64%
    10:00 +26°C° 0.1 mm 1 mps 746 mmHg 62%
    11:00 +27°C° 0.1 mm 2 mps 746 mmHg 59%
    12:00 +28°C° 0.1 mm 2 mps 746 mmHg 57%
    13:00 +28°C° 0 mm 2 mps 746 mmHg 57%
    14:00 +29°C° 0 mm 2 mps 746 mmHg 57%
    15:00 +29°C° 0 mm 2 mps 746 mmHg 57%
    16:00 +29°C° 0.1 mm 1 mps 746 mmHg 61%
    17:00 +29°C° 0.1 mm 1 mps 746 mmHg 65%
    18:00 +26°C° 0.1 mm 0 mps 746 mmHg 69%
    19:00 +26°C° 0.1 mm 1 mps 746 mmHg 74%
    20:00 +24°C° 0.1 mm 1 mps 746 mmHg 78%
    21:00 +22°C° 0.1 mm 1 mps 746 mmHg 83%
    22:00 +22°C° 0 mm 1 mps 746 mmHg 85%
    23:00 +21°C° 0 mm 1 mps 746 mmHg 86%

    24 June, Sunday

    Time Temperature Precipitation Wind Pressure Humidity
    00:00 +21°C° 0 mm 1 mps 746 mmHg 88%
    01:00 +21°C° 0 mm 1 mps 746 mmHg 89%
    02:00 +20°C° 0 mm 1 mps 747 mmHg 90%
    03:00 +20°C° 0 mm 1 mps 747 mmHg 91%
    04:00 +21°C° 0 mm 1 mps 747 mmHg 88%
    05:00 +23°C° 0 mm 1 mps 747 mmHg 85%
    06:00 +24°C° 0 mm 1 mps 747 mmHg 82%
    07:00 +25°C° 0.5 mm 1 mps 747 mmHg 77%
    08:00 +26°C° 0.5 mm 1 mps 747 mmHg 73%
    09:00 +28°C° 0.5 mm 1 mps 747 mmHg 69%
    10:00 +28°C° 0.8 mm 1 mps 747 mmHg 66%
    11:00 +29°C° 0.8 mm 1 mps 747 mmHg 63%
    12:00 +30°C° 0.8 mm 1 mps 747 mmHg 59%
    13:00 +30°C° 0.1 mm 2 mps 747 mmHg 59%
    14:00 +30°C° 0.1 mm 2 mps 747 mmHg 58%
    15:00 +30°C° 0.1 mm 2 mps 747 mmHg 57%
    16:00 +30°C° 0.5 mm 2 mps 747 mmHg 62%
    17:00 +29°C° 0.5 mm 2 mps 747 mmHg 68%
    18:00 +28°C° 0.5 mm 2 mps 747 mmHg 73%
    19:00 +27°C° 0.1 mm 2 mps 747 mmHg 77%
    20:00 +25°C° 0.1 mm 2 mps 747 mmHg 80%
    21:00 +24°C° 0.1 mm 2 mps 747 mmHg 83%
    22:00 +23°C° 0 mm 2 mps 747 mmHg 84%
    23:00 +21°C° 0 mm 2 mps 747 mmHg 85%

    25 June, Monday

    Time Temperature Precipitation Wind Pressure Humidity
    00:00 +21°C° 0 mm 2 mps 747 mmHg 86%
    01:00 +20°C° 0 mm 2 mps 747 mmHg 87%
    02:00 +20°C° 0 mm 2 mps 747 mmHg 88%
    03:00 +20°C° 0 mm 2 mps 748 mmHg 89%
    04:00 +20°C° 0 mm 2 mps 748 mmHg 88%
    05:00 +21°C° 0 mm 2 mps 748 mmHg 87%
    06:00 +23°C° 0 mm 2 mps 748 mmHg 85%
    07:00 +24°C° 0.1 mm 2 mps 748 mmHg 80%
    08:00 +26°C° 0.1 mm 2 mps 748 mmHg 76%
    09:00 +27°C° 0.1 mm 2 mps 748 mmHg 71%
    10:00 +27°C° 0.4 mm 3 mps 748 mmHg 69%
    11:00 +28°C° 0.4 mm 3 mps 748 mmHg 67%
    12:00 +28°C° 0.4 mm 3 mps 748 mmHg 65%
    13:00 +28°C° 0.5 mm 3 mps 748 mmHg 66%
    14:00 +28°C° 0.5 mm 3 mps 748 mmHg 67%
    15:00 +28°C° 0.5 mm 3 mps 748 mmHg 67%
    16:00 +27°C° 0.4 mm 3 mps 748 mmHg 73%
    17:00 +26°C° 0.4 mm 3 mps 748 mmHg 78%
    18:00 +25°C° 0.4 mm 3 mps 748 mmHg 83%
    19:00 +22°C° 0.1 mm 3 mps 748 mmHg 85%
    20:00 +21°C° 0.1 mm 2 mps 748 mmHg 86%
    21:00 +20°C° 0.1 mm 2 mps 748 mmHg 88%
    22:00 +20°C° 0 mm 2 mps 748 mmHg 88%
    23:00 +19°C° 0 mm 2 mps 748 mmHg 88%

    26 June, Tuesday

    Time Temperature Precipitation Wind Pressure Humidity
    00:00 +19°C° 0 mm 2 mps 748 mmHg 88%
    01:00 +18°C° 0 mm 2 mps 748 mmHg 88%
    02:00 +18°C° 0 mm 2 mps 748 mmHg 88%
    03:00 +18°C° 0 mm 2 mps 748 mmHg 89%
    04:00 +18°C° 0.1 mm 2 mps 748 mmHg 88%
    05:00 +18°C° 0.1 mm 2 mps 748 mmHg 88%
    06:00 +18°C° 0.1 mm 2 mps 748 mmHg 87%
    07:00 +19°C° 0.2 mm 3 mps 748 mmHg 87%
    08:00 +19°C° 0.2 mm 3 mps 748 mmHg 87%
    09:00 +19°C° 0.2 mm 3 mps 748 mmHg 86%
    10:00 +20°C° 0.1 mm 4 mps 747 mmHg 84%
    11:00 +20°C° 0.1 mm 4 mps 747 mmHg 82%
    12:00 +21°C° 0.1 mm 4 mps 747 mmHg 79%
    13:00 +20°C° 0.2 mm 5 mps 747 mmHg 79%
    14:00 +20°C° 0.2 mm 5 mps 747 mmHg 79%
    15:00 +20°C° 0.2 mm 5 mps 747 mmHg 79%
    16:00 +20°C° 0.1 mm 5 mps 747 mmHg 80%
    17:00 +19°C° 0.1 mm 5 mps 747 mmHg 81%
    18:00 +19°C° 0.1 mm 4 mps 747 mmHg 82%
    19:00 +18°C° 0.1 mm 4 mps 747 mmHg 85%
    20:00 +17°C° 0.1 mm 4 mps 747 mmHg 89%
    21:00 +16°C° 0.1 mm 3 mps 747 mmHg 92%
    22:00 +14°C° 0.1 mm 3 mps 747 mmHg 93%
    23:00 +14°C° 0.1 mm 3 mps 746 mmHg 95%
    Show more